Home > Weather > Abidjan > Past weeks

Flag for Cote d'Ivoire (Ivory Coast) Past Weather in Abidjan, Cote d'Ivoire (Ivory Coast) — Yesterday and Last 2 Weeks

Now
81 °F

Scattered clouds.


Feels Like: 85 °F
Forecast: 76 / 85 °F
Wind: 10 mph from Southwest

Location: Abidjan Airport

Current Time: Jun 26, 2016 at 10:04:26 AM

Latest Report: Jun 26, 2016 at 9:30 AM


Visibility: N/A

Pressure: 30.01 "Hg

Humidity: 79%

Dew Point: 73 °F

Location of AbidjanLocation

Past Weather in Abidjan — Graph

°F

Abidjan Temperature Yesterday

Maximum temperature yesterday: 84 °F (at 12:30 PM)
Minimum temperature yesterday: 77 °F (at 2:30 AM)
Average temperature yesterday: 80 °F

High & Low Weather Summary for the Past Weeks

 TemperatureHumidityPressure
High86 °F (Jun 11, 11:30 AM)100% (Jun 13, 3:00 AM)30.09 "Hg (Jun 13, 3:00 AM)
Low75 °F (Jun 13, 3:00 AM)66% (Jun 11, 1:00 PM)29.89 "Hg (Jun 20, 4:30 AM)
Average80 °F87%29.98 "Hg
* Reported Jun 11 9:00 AM — Jun 26 9:00 AM, Abidjan, Weather by CustomWeather, © 2016

Note: Actual official high and low records may vary slightly from our data, if they occured in-between our weather recording intervals... More about our weather records

Advertising

Abidjan Weather History for the Previous 24 Hours

Scroll right to see more
 ConditionsComfort  
Time TempWeatherWind HumidityBarometerVisibility
9:00 AM
Sun, Jun 26
81 °FScattered clouds.10 mph79%30.01 "Hg5 mi
8:30 AM79 °FPassing clouds.9 mph84%30.01 "Hg5 mi
8:00 AM79 °FPassing clouds.7 mph89%29.98 "Hg5 mi
7:30 AM79 °FPassing clouds.6 mph84%29.98 "Hg5 mi
7:00 AM77 °FPassing clouds.5 mph89%29.98 "Hg5 mi
6:30 AM75 °FPassing clouds.5 mph94%29.98 "Hg5 mi
6:00 AM75 °FPassing clouds.5 mph94%29.98 "Hg5 mi
5:30 AM75 °FPassing clouds.3 mph94%29.95 "Hg5 mi
5:00 AM75 °FPassing clouds.5 mph94%29.95 "HgN/A
4:30 AM77 °FPassing clouds.6 mph89%29.95 "HgN/A
4:00 AM77 °FPassing clouds.6 mph89%29.95 "HgN/A
3:30 AM77 °FPassing clouds.6 mph89%29.95 "HgN/A
3:00 AM77 °FPassing clouds.6 mph89%29.95 "HgN/A
2:30 AM77 °FPassing clouds.7 mph89%29.95 "HgN/A
2:00 AM77 °FPassing clouds.6 mph89%29.95 "HgN/A
1:30 AM77 °FPassing clouds.7 mph89%29.95 "HgN/A
1:00 AM77 °FPassing clouds.7 mph89%29.95 "HgN/A
12:30 AM77 °FPassing clouds.6 mph94%29.95 "HgN/A
12:00 AM77 °FPassing clouds.5 mph94%29.98 "HgN/A
11:30 PM
Sat, Jun 25
77 °FPassing clouds.5 mph94%29.98 "HgN/A
11:00 PM77 °FPassing clouds.6 mph94%29.95 "HgN/A
10:30 PM79 °FPassing clouds.6 mph89%29.95 "HgN/A
10:00 PM77 °FPassing clouds.5 mph94%29.98 "HgN/A
9:30 PM79 °FPassing clouds.7 mph89%29.95 "HgN/A
9:00 PM79 °FPassing clouds.5 mph89%29.95 "HgN/A
8:30 PM79 °FPartly cloudy.7 mph89%29.95 "HgN/A
8:00 PM79 °FPassing clouds.6 mph89%29.92 "HgN/A
7:30 PM79 °FPassing clouds.6 mph89%29.92 "HgN/A
7:00 PM79 °FPassing clouds.8 mph89%29.92 "HgN/A
6:30 PM79 °FScattered clouds.8 mph89%29.92 "HgN/A
6:00 PM81 °FScattered clouds.9 mph84%29.89 "HgN/A
5:30 PM81 °FScattered clouds.12 mph84%29.89 "HgN/A
5:00 PM82 °FScattered clouds.10 mph79%29.89 "HgN/A
4:30 PM82 °FScattered clouds.10 mph79%29.89 "HgN/A
4:00 PM82 °FScattered clouds.13 mph79%29.89 "HgN/A
3:30 PM82 °FScattered clouds.10 mph79%29.92 "HgN/A
3:00 PM82 °FScattered clouds.9 mph79%29.92 "HgN/A
2:30 PM82 °FScattered clouds.10 mph79%29.92 "HgN/A
2:00 PM82 °FScattered clouds.13 mph79%29.95 "HgN/A
1:30 PM82 °FBroken clouds.12 mph79%29.95 "HgN/A
1:00 PM82 °FBroken clouds.12 mph79%29.95 "HgN/A
12:30 PM84 °FScattered clouds.12 mph74%29.98 "HgN/A
12:00 PM82 °FPartly sunny.12 mph79%29.98 "HgN/A
11:30 AM82 °FPartly sunny.12 mph79%29.98 "HgN/A
11:00 AM82 °FPartly sunny.10 mph79%29.98 "HgN/A
10:30 AM81 °FPartly sunny.8 mph84%29.98 "Hg6 mi
10:00 AM81 °FPartly sunny.8 mph84%29.98 "Hg6 mi
Weather by CustomWeather, © 2016

See weather overviewHow to use our weather pages